Traverse City, MI

4:11 AM EST on February 07, 2016 (GMT -0500)
Cherry Capital

Weather History for KTVC - May, 2013

Change the Weather History Date:

Thursday, May 30, 2013

  Actual Average Record
Temperature  
Mean Temperature 76 °F 58 °F  
Max Temperature 89 °F 70 °F 92 °F (1937)
Min Temperature 62 °F 47 °F 28 °F (1961)
Degree Days  
Heating Degree Days 0 8  
Month to date heating degree days 316 363  
Since 1 July heating degree days 6975 7430  
Cooling Degree Days 11 1  
Month to date cooling degree days 29 13  
Year to date cooling degree days 31 16  
Growing Degree Days 26 (Base 50)    
Moisture  
Dew Point 63 °F    
Average Humidity 66    
Maximum Humidity 93    
Minimum Humidity 38    
Precipitation  
Precipitation 0.23 in 0.08 in 1.41 in (1975)
Month to date precipitation 2.70 2.50  
Year to date precipitation 12.38 11.46  
Sea Level Pressure  
Sea Level Pressure 29.87 in    
Wind  
Wind Speed 6 mph (SSW)    
Max Wind Speed 17 mph    
Max Gust Speed 26 mph    
Visibility 10 miles    
Events Thunderstorm    
T = Trace of Precipitation, MM = Missing Value Source: NWS Daily Summary

Daily Weather History Graph

Daily Weather History Graph

Search for Another Location

Airport or City:

Trip Planner

Search our weather history database for the weather conditions in past years. The results will help you decide how hot, cold, wet, or windy it might be!

Date:

Astronomy

May. 30, 2013 Rise Set
Actual Time 6:00 AM EDT 9:19 PM EDT
Civil Twilight 5:24 AM EDT 9:55 PM EDT
Nautical Twilight 4:38 AM EDT 10:42 PM EDT
Astronomical Twilight 3:40 AM EDT 11:40 PM EDT
Moon 1:10 AM EDT (5/30) 12:18 PM EDT (5/30)
Length of Visible Light 16h 30m
Length of Day
15h 18m
Waning Gibbous, 62% of the Moon is Illuminated
May 30
Waning Gibbous
May 31
Last Quarter
Jun 8
New
Jun 16
First Quarter
Jun 23
Full

Hourly Weather History & Observations

Time (EDT) Temp. Heat Index Dew Point Humidity Pressure Visibility Wind Dir Wind Speed Gust Speed Precip Events Conditions
12:53 AM 62.1 °F - 59.0 °F 90% 29.90 in 10.0 mi Calm Calm - N/A   Clear
1:53 AM 63.0 °F - 60.1 °F 90% 29.91 in 10.0 mi Calm Calm - N/A   Partly Cloudy
2:53 AM 63.0 °F - 61.0 °F 93% 29.91 in 10.0 mi Calm Calm - N/A   Clear
3:53 AM 64.9 °F - 62.1 °F 90% 29.89 in 9.0 mi Calm Calm - N/A   Clear
4:53 AM 70.0 °F - 64.0 °F 81% 29.89 in 10.0 mi Calm Calm - N/A   Clear
5:53 AM 69.1 °F - 63.0 °F 81% 29.90 in 10.0 mi Calm Calm - N/A   Clear
6:53 AM 70.0 °F - 62.1 °F 76% 29.90 in 10.0 mi Calm Calm - N/A   Scattered Clouds
7:53 AM 73.0 °F - 62.1 °F 68% 29.91 in 10.0 mi Variable 5.8 mph - N/A   Scattered Clouds
8:53 AM 75.9 °F - 63.0 °F 64% 29.91 in 10.0 mi Variable 4.6 mph - N/A   Scattered Clouds
9:53 AM 79.0 °F - 63.0 °F 58% 29.91 in 10.0 mi Variable 5.8 mph 19.6 mph N/A   Scattered Clouds
10:53 AM 82.0 °F 83.4 °F 64.0 °F 54% 29.91 in 10.0 mi SSW 8.1 mph - N/A   Scattered Clouds
11:53 AM 84.0 °F 85.4 °F 64.0 °F 51% 29.89 in 10.0 mi SW 12.7 mph 23.0 mph N/A   Scattered Clouds
12:53 PM 86.0 °F 87.3 °F 64.0 °F 48% 29.88 in 10.0 mi SSW 6.9 mph 19.6 mph N/A   Mostly Cloudy
1:53 PM 86.0 °F 87.6 °F 64.9 °F 49% 29.88 in 10.0 mi SSW 12.7 mph 24.2 mph N/A   Mostly Cloudy
2:53 PM 87.1 °F 88.3 °F 64.0 °F 46% 29.85 in 10.0 mi WSW 11.5 mph 20.7 mph N/A   Mostly Cloudy
3:53 PM 88.0 °F 88.7 °F 63.0 °F 43% 29.84 in 10.0 mi SW 10.4 mph 20.7 mph N/A   Scattered Clouds
4:53 PM 89.1 °F 88.8 °F 60.1 °F 38% 29.82 in 10.0 mi WSW 12.7 mph 24.2 mph N/A   Scattered Clouds
5:53 PM 87.1 °F 87.8 °F 63.0 °F 44% 29.81 in 10.0 mi South 9.2 mph - N/A   Mostly Cloudy
6:53 PM 87.1 °F 87.8 °F 63.0 °F 44% 29.81 in 10.0 mi SW 9.2 mph - N/A   Mostly Cloudy
7:53 PM 82.9 °F 84.6 °F 64.9 °F 54% 29.82 in 10.0 mi SSE 5.8 mph - N/A   Mostly Cloudy
8:53 PM 81.0 °F 83.0 °F 66.0 °F 60% 29.84 in 10.0 mi South 5.8 mph - N/A   Mostly Cloudy
9:53 PM 79.0 °F - 68.0 °F 69% 29.85 in 10.0 mi Variable 6.9 mph - N/A   Mostly Cloudy
10:53 PM 75.9 °F - 66.0 °F 71% 29.85 in 10.0 mi Variable 6.9 mph - N/A   Partly Cloudy
11:01 PM 75.2 °F - 64.4 °F 69% 29.86 in 10.0 mi Variable 6.9 mph - N/A Thunderstorm Scattered Clouds
11:53 PM 72.0 °F - 64.9 °F 78% 29.86 in 8.0 mi SSE 6.9 mph - 0.01 in Thunderstorm Mostly Cloudy